Triuchirapalli, India

6:44 AM IST on March 26, 2017 (GMT +0530)
Tiruchirappalli

Weather History for VOTR - June, 2013

Change the Weather History Date:

Wednesday, June 12, 2013

  Actual Average Record
Temperature  
Mean Temperature 88 °F -  
Max Temperature 95 °F 94 °F 103 °F (2012)
Min Temperature 80 °F 81 °F 77 °F (2002)
Cooling Degree Days 22    
Growing Degree Days 38 (Base 50)    
Moisture  
Dew Point 67 °F    
Average Humidity 50    
Maximum Humidity 65    
Minimum Humidity 24    
Precipitation  
Precipitation 0.00 in - - ()
Sea Level Pressure  
Sea Level Pressure 29.63 in    
Wind  
Wind Speed 12 mph ()    
Max Wind Speed 18 mph    
Max Gust Speed 29 mph    
Visibility 4.1 miles    
Events      
Averages and records for this station are not official NWS values.
T = Trace of Precipitation, MM = Missing Value Source: Averaged Metar Reports

Daily Weather History Graph

Daily Weather History Graph

Search for Another Location

Airport or City:

Trip Planner

Search our weather history database for the weather conditions in past years. The results will help you decide how hot, cold, wet, or windy it might be!

Date:

Astronomy

Jun. 12, 2013 Rise Set
Actual Time 5:52 AM IST 6:37 PM IST
Civil Twilight 5:29 AM IST 7:00 PM IST
Nautical Twilight 5:02 AM IST 7:27 PM IST
Astronomical Twilight 4:34 AM IST 7:55 PM IST
Moon 8:41 AM IST (6/12) 9:27 PM IST (6/12)
Length of Visible Light 13h 31m
Length of Day
12h 44m
Waxing Crescent, 11% of the Moon is Illuminated
Jun 12
Waxing Crescent
Jun 16
First Quarter
Jun 23
Full
Jun 30
Last Quarter
Jul 8
New

Hourly Weather History & Observations

Time (IST) Temp. Heat Index Dew Point Humidity Pressure Visibility Wind Dir Wind Speed Gust Speed Precip Events Conditions
12:10 AM 84.2 °F 87.3 °F 68.0 °F 58% 29.68 in 3.7 mi West 17.3 mph 28.8 mph N/A   Mostly Cloudy
12:40 AM 84.2 °F 87.3 °F 68.0 °F 58% 29.68 in 3.7 mi WNW 18.4 mph - N/A   Mostly Cloudy
1:10 AM 84.2 °F 87.3 °F 68.0 °F 58% 29.68 in 3.7 mi WNW 16.1 mph - N/A   Mostly Cloudy
1:40 AM 82.4 °F 85.4 °F 68.0 °F 62% 29.65 in 3.7 mi West 15.0 mph 26.5 mph N/A   Mostly Cloudy
2:10 AM 82.4 °F 85.4 °F 68.0 °F 62% 29.65 in 3.7 mi West 12.7 mph - N/A   Mostly Cloudy
2:30 AM 82 °F - 66 °F 49% 29.64 in 2 mi WNW 11.5 mph - -   Haze
2:40 AM 82.4 °F 85.4 °F 68.0 °F 62% 29.65 in 3.7 mi West 11.5 mph - N/A   Mostly Cloudy
3:10 AM 80.6 °F 83.2 °F 68.0 °F 65% 29.65 in 3.7 mi West 11.5 mph - N/A   Mostly Cloudy
3:40 AM 80.6 °F 83.2 °F 68.0 °F 65% 29.62 in 3.7 mi WNW 9.2 mph - N/A   Mostly Cloudy
4:10 AM 80.6 °F 83.2 °F 68.0 °F 65% 29.62 in 3.7 mi WNW 11.5 mph - N/A   Mostly Cloudy
4:40 AM 80.6 °F 83.2 °F 68.0 °F 65% 29.62 in 3.7 mi West 10.4 mph - N/A   Mostly Cloudy
5:10 AM 80.6 °F 83.2 °F 68.0 °F 65% 29.62 in 3.7 mi West 11.5 mph - N/A   Mostly Cloudy
5:30 AM 81 °F - 66 °F 52% 29.63 in 2 mi West 10.4 mph - -   Haze
5:40 AM 80.6 °F 82.7 °F 66.2 °F 61% 29.65 in 3.7 mi West 10.4 mph - N/A   Mostly Cloudy
6:10 AM 82.4 °F 84.6 °F 66.2 °F 58% 29.65 in 3.7 mi West 4.6 mph - N/A   Mostly Cloudy
6:40 AM 84.2 °F 86.6 °F 66.2 °F 55% 29.65 in 3.7 mi Calm Calm - N/A   Mostly Cloudy
7:10 AM 84.2 °F 86.6 °F 66.2 °F 55% 29.65 in 3.7 mi Calm Calm - N/A   Overcast
7:40 AM 86.0 °F 88.2 °F 66.2 °F 51% 29.68 in 3.7 mi Calm Calm - N/A   Overcast
8:10 AM 86.0 °F 88.2 °F 66.2 °F 51% 29.68 in 5.0 mi WNW 3.5 mph - N/A   Overcast
8:30 AM 86 °F - 67 °F 43% 29.68 in 6 mi West 10.4 mph - -   Overcast
8:40 AM 86.0 °F 88.2 °F 66.2 °F 51% 29.68 in 5.0 mi West 11.5 mph - N/A   Overcast
9:10 AM 87.8 °F 91.4 °F 68.0 °F 52% 29.68 in 5.0 mi West 13.8 mph - N/A   Overcast
9:40 AM 87.8 °F 91.4 °F 68.0 °F 52% 29.68 in 5.0 mi West 13.8 mph - N/A   Overcast
10:10 AM 87.8 °F 91.4 °F 68.0 °F 52% 29.68 in 5.0 mi West 11.5 mph 23.0 mph N/A   Overcast
10:40 AM 87.8 °F 91.4 °F 68.0 °F 52% 29.68 in 5.0 mi West 11.5 mph 23.0 mph N/A   Overcast
11:10 AM 89.6 °F 93.4 °F 68.0 °F 49% 29.68 in 5.0 mi West 17.3 mph 28.8 mph N/A   Overcast
11:30 AM 92 °F - 66 °F 33% 29.65 in 6 mi West 15.0 mph - -   Overcast
11:40 AM 91.4 °F 94.0 °F 66.2 °F 43% 29.65 in 5.0 mi West 17.3 mph 28.8 mph N/A   Overcast
12:10 PM 93.2 °F 97.7 °F 68.0 °F 44% 29.62 in 5.0 mi West 17.3 mph 28.8 mph N/A   Overcast
12:40 PM 93.2 °F 97.7 °F 68.0 °F 44% 29.62 in 5.0 mi WNW 17.3 mph 28.8 mph N/A   Overcast
1:10 PM 93.2 °F 97.7 °F 68.0 °F 44% 29.62 in 5.0 mi West 11.5 mph 23.0 mph N/A   Overcast
1:40 PM 95.0 °F 99.5 °F 68.0 °F 41% 29.59 in 5.0 mi West 17.3 mph 28.8 mph N/A   Overcast
2:10 PM 95.0 °F 98.5 °F 66.2 °F 39% 29.59 in 5.0 mi West 17.3 mph 28.8 mph N/A   Overcast
2:30 PM 95 °F - 62 °F 24% 29.59 in 2 mi WNW 16.1 mph - -   Overcast
2:40 PM 95.0 °F 97.0 °F 64.4 °F 36% 29.59 in 5.0 mi WNW 17.3 mph 28.8 mph N/A   Overcast
3:10 PM 95.0 °F 97.0 °F 64.4 °F 36% 29.59 in 5.0 mi WNW 17.3 mph 28.8 mph N/A   Overcast
3:40 PM 95.0 °F 98.5 °F 66.2 °F 39% 29.59 in 5.0 mi WNW 17.3 mph 28.8 mph N/A   Overcast
4:10 PM 95.0 °F 98.5 °F 66.2 °F 39% 29.56 in 5.0 mi West 17.3 mph 28.8 mph N/A   Overcast
4:40 PM 93.2 °F 96.2 °F 66.2 °F 41% 29.56 in 5.0 mi West 17.3 mph 28.8 mph N/A   Overcast
5:10 PM 91.4 °F 93.2 °F 64.4 °F 41% 29.56 in 5.0 mi WNW 17.3 mph 28.8 mph N/A   Mostly Cloudy
5:30 PM 91 °F - 64 °F 31% 29.57 in 2 mi WNW 13.8 mph - -   Overcast
5:40 PM 91.4 °F 94.0 °F 66.2 °F 43% 29.59 in 5.0 mi West 17.3 mph 28.8 mph N/A   Mostly Cloudy
6:10 PM 89.6 °F 92.2 °F 66.2 °F 46% 29.59 in 5.0 mi West 17.3 mph 28.8 mph N/A   Mostly Cloudy
6:40 PM 89.6 °F 93.4 °F 68.0 °F 49% 29.59 in 5.0 mi West 17.3 mph 28.8 mph N/A   Mostly Cloudy
7:10 PM 87.8 °F 91.4 °F 68.0 °F 52% 29.59 in 3.7 mi WNW 11.5 mph 23.0 mph N/A   Mostly Cloudy
7:40 PM 87.8 °F 91.4 °F 68.0 °F 52% 29.59 in 3.7 mi West 17.3 mph 28.8 mph N/A   Mostly Cloudy
8:10 PM 87.8 °F 91.4 °F 68.0 °F 52% 29.62 in 3.7 mi West 17.3 mph 28.8 mph N/A   Mostly Cloudy
8:30 PM 87 °F - 67 °F 42% 29.62 in 2 mi WNW 13.8 mph - -   Haze
8:40 PM 86.0 °F 89.4 °F 68.0 °F 55% 29.62 in 3.7 mi West 17.3 mph - N/A   Mostly Cloudy
9:10 PM 86.0 °F 89.4 °F 68.0 °F 55% 29.62 in 3.7 mi West 15.0 mph - N/A   Mostly Cloudy
9:40 PM 86.0 °F 89.4 °F 68.0 °F 55% 29.65 in 3.7 mi West 15.0 mph 28.8 mph N/A   Mostly Cloudy
10:10 PM 86.0 °F 89.4 °F 68.0 °F 55% 29.65 in 3.7 mi West 12.7 mph 26.5 mph N/A   Mostly Cloudy
10:40 PM 86.0 °F 89.4 °F 68.0 °F 55% 29.65 in 3.7 mi West 15.0 mph 26.5 mph N/A   Mostly Cloudy
11:10 PM 86.0 °F 89.4 °F 68.0 °F 55% 29.65 in 3.7 mi West 15.0 mph - N/A   Mostly Cloudy
11:30 PM 85 °F - 66 °F 43% 29.65 in 2 mi WNW 11.5 mph - -   Haze
11:40 PM 84.2 °F 87.3 °F 68.0 °F 58% 29.65 in 3.7 mi West 11.5 mph - N/A   Mostly Cloudy